{"data":{"norad_id":55309,"intl_designator":"2023-010AS","name":"STARLINK-5315","alt_names":[],"object_type":"PAYLOAD","status":"ACTIVE","operator":null,"country":"US","launch_date":"2023-01-19","launch_site_code":"AFWTR","launch_vehicle":null,"mission":null,"orbit_class":"UNKNOWN","rcs_meters":null,"size_class":null,"mass_kg":null,"dimensions":null,"purposes":["comms"],"wikipedia_slug":null,"has_3d_model":false,"image_url":null,"decayed_at":null,"tle_current":{"epoch":"2026-09-20T22:00:03.000096Z","epoch_age_seconds":57410,"freshness":"FRESH","line1":"1 55309U 23010AS  26263.91670139  .00051009  00000+0  35848-2 0  9997","line2":"2 55309  70.0004 232.0241 0005561 274.0124 327.1652 15.04820143  5768","mean_motion":15.04820143,"eccentricity":0.0005561,"inclination_deg":70.0004,"raan_deg":232.0241,"arg_perigee_deg":274.0124,"mean_anomaly_deg":327.1652,"bstar":0.0035848,"rev_number":576,"period_min":95.692498980591,"perigee_km":548.20394649689,"apogee_km":555.91170918441,"semimajor_km":6930.1948278406,"source":"CELESTRAK","updated_at":"2026-09-21T09:00:33.173718Z"}}}